Location: Cieszkowy
(50.3290°N, 20.5336°E)
Time: 00:19:21
(UTC+00:00)

Aureole 1 Rocket - Pass Details

Date: 15 June 2024
Orbit: 376 x 1258 km, 73.9° (Epoch: 18 July)

Event Time Altitude Azimuth Distance (km) Brightness Sun altitude
Exits shadow 00:34:41 16° 235° (SW) 1,360 4.3 -12.0°
Maximum altitude 00:37:22 43° 303° (WNW) 785 3.6 -11.8°
Drops below altitude 10° 00:41:44 10° 15° (NNE) 2,084 7.2 -11.5°
Sets 00:44:27 0° 22° (NNE) 3,168 8.8 -11.2°
